When you browse on this site, cookies collect data to enhance your experience and personalize the content and advertising you see.
Visit our Privacy Policy to learn more. By continuing to use the site, you agree to this use of cookies and data.
  • In Spain
  • List of Countries
  • For 7 days
  • Water Temperature
  • Weather Map
  • Weather Widgets
  • user-avatar
    Login

    Hourly Weather Lucena

    Today, 19 February, Wednesday

    Time Temperature Precipitation Wind Pressure Humidity
    00:00 +12°C° 0 mm 1 mps 724 mmHg 85%
    01:00 +12°C° 0.1 mm 1 mps 723 mmHg 86%
    02:00 +12°C° 0.1 mm 1 mps 723 mmHg 86%
    03:00 +11°C° 0.1 mm 0 mps 723 mmHg 87%
    04:00 +11°C° 0 mm 0 mps 723 mmHg 89%
    05:00 +11°C° 0 mm 1 mps 723 mmHg 90%
    06:00 +11°C° 0 mm 1 mps 723 mmHg 92%
    07:00 +11°C° 0 mm 1 mps 723 mmHg 88%
    08:00 +12°C° 0 mm 1 mps 724 mmHg 85%
    09:00 +13°C° 0 mm 1 mps 724 mmHg 81%
    10:00 +14°C° 0 mm 1 mps 724 mmHg 75%
    11:00 +15°C° 0 mm 1 mps 724 mmHg 69%
    12:00 +18°C° 0 mm 1 mps 724 mmHg 63%
    13:00 +16°C° 0.1 mm 1 mps 724 mmHg 64%
    14:00 +16°C° 0.1 mm 1 mps 723 mmHg 65%
    15:00 +16°C° 0.1 mm 1 mps 723 mmHg 67%
    16:00 +15°C° 0 mm 1 mps 722 mmHg 71%
    17:00 +14°C° 0 mm 2 mps 722 mmHg 75%
    18:00 +13°C° 0 mm 2 mps 722 mmHg 80%
    19:00 +12°C° 0 mm 2 mps 722 mmHg 83%
    20:00 +10°C° 0 mm 2 mps 722 mmHg 86%
    21:00 +10°C° 0 mm 2 mps 722 mmHg 90%
    22:00 +9°C° 0 mm 2 mps 722 mmHg 90%
    23:00 +10°C° 0 mm 1 mps 721 mmHg 89%

    Tomorrow, 20 February, Thursday

    Time Temperature Precipitation Wind Pressure Humidity
    00:00 +10°C° 0 mm 1 mps 721 mmHg 89%
    01:00 +9°C° 0 mm 1 mps 721 mmHg 89%
    02:00 +9°C° 0 mm 1 mps 720 mmHg 89%
    03:00 +9°C° 0 mm 1 mps 720 mmHg 89%
    04:00 +8°C° 0 mm 1 mps 720 mmHg 89%
    05:00 +8°C° 0 mm 1 mps 719 mmHg 90%
    06:00 +8°C° 0 mm 1 mps 719 mmHg 90%
    07:00 +9°C° 0 mm 1 mps 719 mmHg 84%
    08:00 +10°C° 0 mm 1 mps 719 mmHg 78%
    09:00 +12°C° 0 mm 1 mps 719 mmHg 72%
    10:00 +13°C° 0 mm 1 mps 719 mmHg 64%
    11:00 +15°C° 0 mm 1 mps 719 mmHg 57%
    12:00 +18°C° 0 mm 1 mps 719 mmHg 49%
    13:00 +17°C° 0 mm 2 mps 719 mmHg 49%
    14:00 +18°C° 0 mm 2 mps 719 mmHg 48%
    15:00 +18°C° 0 mm 2 mps 718 mmHg 47%
    16:00 +17°C° 0 mm 2 mps 718 mmHg 53%
    17:00 +15°C° 0 mm 1 mps 718 mmHg 59%
    18:00 +14°C° 0 mm 1 mps 718 mmHg 65%
    19:00 +13°C° 0 mm 1 mps 718 mmHg 66%
    20:00 +12°C° 0 mm 1 mps 719 mmHg 67%
    21:00 +12°C° 0 mm 1 mps 719 mmHg 68%
    22:00 +12°C° 0 mm 1 mps 719 mmHg 69%
    23:00 +11°C° 0 mm 1 mps 719 mmHg 71%

    Day after tomorrow, 21 February, Friday

    Time Temperature Precipitation Wind Pressure Humidity
    00:00 +11°C° 0 mm 1 mps 720 mmHg 72%
    01:00 +11°C° 0 mm 1 mps 720 mmHg 73%
    02:00 +10°C° 0 mm 1 mps 719 mmHg 75%
    03:00 +10°C° 0 mm 1 mps 719 mmHg 77%
    04:00 +10°C° 0 mm 1 mps 720 mmHg 76%
    05:00 +10°C° 0 mm 1 mps 720 mmHg 75%
    06:00 +9°C° 0 mm 1 mps 720 mmHg 75%
    13:00 +18°C° 0 mm 2 mps 722 mmHg 47%
    14:00 +19°C° 0 mm 2 mps 722 mmHg 46%
    15:00 +19°C° 0 mm 3 mps 722 mmHg 46%
    16:00 +17°C° 0 mm 2 mps 722 mmHg 52%
    17:00 +15°C° 0 mm 2 mps 722 mmHg 59%
    18:00 +13°C° 0 mm 2 mps 722 mmHg 65%
    19:00 +13°C° 0 mm 2 mps 722 mmHg 69%
    20:00 +12°C° 0 mm 2 mps 722 mmHg 72%
    21:00 +10°C° 0 mm 2 mps 722 mmHg 76%
    22:00 +9°C° 0 mm 2 mps 723 mmHg 78%
    23:00 +10°C° 0 mm 1 mps 723 mmHg 80%

    22 February, Saturday

    Time Temperature Precipitation Wind Pressure Humidity
    00:00 +10°C° 0 mm 1 mps 723 mmHg 83%
    01:00 +9°C° 0 mm 1 mps 723 mmHg 83%
    02:00 +9°C° 0 mm 1 mps 723 mmHg 83%
    03:00 +9°C° 0 mm 1 mps 723 mmHg 83%
    04:00 +9°C° 0 mm 1 mps 723 mmHg 82%
    05:00 +8°C° 0 mm 1 mps 723 mmHg 82%
    06:00 +8°C° 0 mm 1 mps 723 mmHg 81%
    07:00 +9°C° 0 mm 1 mps 723 mmHg 75%
    08:00 +11°C° 0 mm 1 mps 724 mmHg 70%
    09:00 +12°C° 0 mm 2 mps 724 mmHg 64%
    10:00 +14°C° 0 mm 2 mps 724 mmHg 57%
    11:00 +16°C° 0 mm 2 mps 724 mmHg 49%
    12:00 +18°C° 0 mm 2 mps 724 mmHg 42%
    13:00 +18°C° 0 mm 2 mps 724 mmHg 40%
    14:00 +19°C° 0 mm 2 mps 724 mmHg 38%
    15:00 +20°C° 0 mm 2 mps 724 mmHg 36%
    16:00 +19°C° 0 mm 1 mps 723 mmHg 41%
    17:00 +16°C° 0 mm 1 mps 723 mmHg 46%
    18:00 +14°C° 0 mm 1 mps 723 mmHg 52%
    19:00 +13°C° 0 mm 1 mps 723 mmHg 57%
    20:00 +12°C° 0 mm 1 mps 724 mmHg 62%
    21:00 +10°C° 0 mm 2 mps 724 mmHg 67%
    22:00 +10°C° 0 mm 2 mps 724 mmHg 70%
    23:00 +9°C° 0 mm 2 mps 724 mmHg 72%

    23 February, Sunday

    Time Temperature Precipitation Wind Pressure Humidity
    00:00 +9°C° 0 mm 2 mps 724 mmHg 75%
    01:00 +9°C° 0 mm 1 mps 724 mmHg 74%
    02:00 +9°C° 0 mm 1 mps 724 mmHg 74%
    03:00 +9°C° 0 mm 1 mps 723 mmHg 73%
    04:00 +8°C° 0 mm 1 mps 723 mmHg 72%
    05:00 +8°C° 0 mm 1 mps 723 mmHg 70%
    06:00 +8°C° 0 mm 1 mps 724 mmHg 68%
    07:00 +9°C° 0 mm 1 mps 724 mmHg 62%
    08:00 +11°C° 0 mm 1 mps 724 mmHg 57%
    09:00 +12°C° 0 mm 1 mps 725 mmHg 51%
    10:00 +14°C° 0 mm 1 mps 725 mmHg 45%
    11:00 +16°C° 0 mm 1 mps 725 mmHg 38%
    12:00 +19°C° 0 mm 1 mps 725 mmHg 32%
    13:00 +20°C° 0 mm 1 mps 725 mmHg 31%
    14:00 +21°C° 0 mm 1 mps 724 mmHg 31%
    15:00 +21°C° 0 mm 1 mps 724 mmHg 31%
    16:00 +19°C° 0 mm 1 mps 724 mmHg 38%
    17:00 +16°C° 0 mm 1 mps 723 mmHg 45%
    18:00 +14°C° 0 mm 1 mps 723 mmHg 52%
    19:00 +14°C° 0 mm 1 mps 723 mmHg 53%
    20:00 +13°C° 0 mm 1 mps 724 mmHg 55%
    21:00 +12°C° 0 mm 1 mps 724 mmHg 57%
    22:00 +12°C° 0 mm 1 mps 724 mmHg 57%
    23:00 +11°C° 0 mm 1 mps 724 mmHg 57%

    24 February, Monday

    Time Temperature Precipitation Wind Pressure Humidity
    00:00 +11°C° 0 mm 1 mps 724 mmHg 57%
    01:00 +10°C° 0 mm 1 mps 723 mmHg 58%
    02:00 +10°C° 0 mm 1 mps 723 mmHg 59%
    03:00 +10°C° 0 mm 1 mps 723 mmHg 60%
    04:00 +9°C° 0 mm 1 mps 723 mmHg 59%
    05:00 +9°C° 0 mm 1 mps 723 mmHg 59%
    06:00 +9°C° 0 mm 1 mps 723 mmHg 58%
    07:00 +11°C° 0 mm 1 mps 723 mmHg 55%
    08:00 +12°C° 0 mm 1 mps 723 mmHg 51%
    09:00 +14°C° 0 mm 1 mps 723 mmHg 47%
    10:00 +16°C° 0 mm 1 mps 724 mmHg 43%
    11:00 +18°C° 0 mm 1 mps 724 mmHg 39%
    12:00 +20°C° 0 mm 1 mps 724 mmHg 34%
    13:00 +21°C° 0 mm 1 mps 723 mmHg 33%
    14:00 +21°C° 0 mm 1 mps 723 mmHg 32%
    15:00 +21°C° 0 mm 2 mps 722 mmHg 31%
    16:00 +20°C° 0 mm 1 mps 722 mmHg 36%
    17:00 +18°C° 0 mm 1 mps 721 mmHg 41%
    18:00 +15°C° 0 mm 1 mps 721 mmHg 46%
    19:00 +14°C° 0 mm 1 mps 721 mmHg 49%
    20:00 +13°C° 0 mm 1 mps 721 mmHg 51%
    21:00 +13°C° 0 mm 1 mps 722 mmHg 54%
    22:00 +11°C° 0 mm 0 mps 722 mmHg 55%
    23:00 +11°C° 0 mm 0 mps 721 mmHg 57%
    Show more